Regional Weather Roundup
Issued by NWS Albany, NY

Home | Current Version | Previous Version | Text Only | Print | Product List | Glossary On
Versions: 1 2 3 4 5 6 7 8 9 10 11 12 13 14 15 16 17 18 19 20 21 22 23 24 25 26 27 28 29 30 31 32 33 34 35 36 37 38 39 40 41 42 43 44 45 46 47 48 49 50
000
ASUS41 KALY 222310
RWRALY

NEW YORK STATE HOURLY WEATHER ROUNDUP
NATIONAL WEATHER SERVICE ALBANY NY
600 PM EST MON DEC 22 2014

NOTE: "FAIR" INDICATES FEW OR NO CLOUDS BELOW 12,000 FEET WITH NO
SIGNIFICANT WEATHER AND/OR NO OBSTRUCTIONS TO VISIBILITY.

NYZ032-033-038>043-046>054-057>066-NYZ062>081-230000-
EAST


CITY           SKY/WX    TMP DP  RH WIND       PRES   REMARKS
ALBANY         CLOUDY    35  27  72 CALM      30.27F
GLENS FALLS    CLOUDY    33  26  75 CALM      30.28S
POUGHKEEPSIE   CLOUDY    37  31  78 N7        30.24F WCI  32
MONTGOMERY     CLOUDY    37  33  85 N6        30.23S WCI  32
WHITE PLAINS   CLOUDY    42  39  89 E8        30.21F
ISLIP          CLOUDY    45  40  82 E10       30.20F
NEW YORK CITY  CLOUDY    42  39  89 NE7       30.22S
CENTRAL PARK   CLOUDY    43  39  86 VRB6      30.24S
$$

NYZ005>009-017-018-044>046-055-056-230000-
CENTRAL


CITY           SKY/WX    TMP DP  RH WIND       PRES   REMARKS
FULTON         CLOUDY    35  28  75 VRB5      30.15F WCI  31
SYRACUSE       MOCLDY    33  28  81 E6        30.17S WCI  28
ROME           CLOUDY    35  30  82 SE8       30.22S WCI  29
ELMIRA         CLOUDY    35  26  69 CALM      30.13F
BINGHAMTON     PTCLDY    32  28  85 SE9       30.11F WCI  24
MONTICELLO     CLOUDY    34  30  86 E8        30.19F WCI  27
$$

NYZ026>034-041>043-230000-
NORTH


CITY           SKY/WX    TMP DP  RH WIND       PRES   REMARKS
WATERTOWN      PTCLDY    29  22  75 E3        30.18F
FORT DRUM      NOT AVBL
MASSENA        CLOUDY    23  18  81 NE12      30.28F WCI  12
SARANAC LAKE     N/A    N/A N/A N/A MISG      30.17S
PLATTSBURGH    CLOUDY    22  18  85 N5        30.31F WCI  16
$$

NYZ001>004-010>016-019>021-230000-
WEST


CITY           SKY/WX    TMP DP  RH WIND       PRES   REMARKS
NIAGARA FALLS  CLOUDY    36  27  69 NE6       30.05F WCI  31
BUFFALO        MOCLDY    36  27  69 E6        30.05F WCI  31
DUNKIRK        PTCLDY    37  28  70 SE7       30.04R WCI  32
JAMESTOWN      CLEAR     34  25  69 S10       30.02S WCI  26
WELLSVILLE     CLOUDY    30  24  78 SE9       30.07R WCI  22
ROCHESTER      MOCLDY    36  26  67 S10       30.11S WCI  28
PENN YAN       FAIR      33  25  72 S7        30.12F WCI  27
$$

             KEY
       WCI = WIND CHILL INDEX
       VSB = VISIBILITY
       HX  = HEAT INDEX
$$


USA.gov is the U.S. government's official web portal to all federal, state and local government web resources and services.